H1 CPF 2 NER 2021 12 20 9 354 01 glonass106 H2 0705201 9106 32275 2021 12 20 0 0 0 2021 12 23 23 45 0 900 1 1 0 0 0 1 H9 10 0 59568 0.00000 0 7737128.029 10522642.373 21915715.192 10 0 59568 900.00000 0 7374502.257 13125657.155 20595783.925 10 0 59568 1800.00000 0 7231547.234 15563232.427 18876035.160 10 0 59568 2700.00000 0 7284437.443 17771121.764 16789802.565 10 0 59568 3600.00000 0 7498416.661 19692389.693 14377541.921 10 0 59568 4500.00000 0 7829428.625 21279606.267 11686051.494 10 0 59568 5400.00000 0 8226152.248 22496658.494 8767568.048 10 0 59568 6300.00000 0 8632355.466 23320103.148 5678755.473 10 0 59568 7200.00000 0 8989468.198 23740004.311 2479605.452 10 0 59568 8100.00000 0 9239265.328 23760220.661 -767728.560 10 0 59568 9000.00000 0 9326545.746 23398130.433 -4000141.260 10 0 59568 9900.00000 0 9201693.388 22683805.757 -7154805.280 10 0 59568 10800.00000 0 8823011.040 21658671.285 -10170396.463 10 0 59568 11700.00000 0 8158727.156 20373703.823 -12988290.222 10 0 59568 12600.00000 0 7188589.749 18887249.124 -15553705.078 10 0 59568 13500.00000 0 5904978.838 17262548.057 -17816770.723 10 0 59568 14400.00000 0 4313489.327 15565076.586 -19733499.560 10 0 59568 15300.00000 0 2432958.552 13859811.641 -21266642.645 10 0 59568 16200.00000 0 294936.207 12208537.887 -22386413.521 10 0 59568 17100.00000 0 -2057382.339 10667308.365 -23071066.070 10 0 59568 18000.00000 0 -4570715.606 9284165.329 -23307315.439 10 0 59568 18900.00000 0 -7183684.260 8097216.372 -23090594.224 10 0 59568 19800.00000 0 -9829145.980 7133145.831 -22425139.218 10 0 59568 20700.00000 0 -12436780.221 6406223.128 -21323907.242 10 0 59568 21600.00000 0 -14935815.895 5917848.692 -19808321.815 10 0 59568 22500.00000 0 -17257788.912 5656655.562 -17907855.553 10 0 59568 23400.00000 0 -19339215.104 5599161.442 -15659456.319 10 0 59568 24300.00000 0 -21124067.607 5710942.823 -13106828.146 10 0 59568 25200.00000 0 -22565955.757 5948280.841 -10299580.730 10 0 59568 26100.00000 0 -23629914.925 6260208.704 -7292264.003 10 0 59568 27000.00000 0 -24293732.936 6590873.499 -4143306.569 10 0 59568 27900.00000 0 -24548758.148 6882111.979 -913878.714 10 0 59568 28800.00000 0 -24400155.887 7076130.842 2333297.556 10 0 59568 29700.00000 0 -23866603.215 7118177.634 5535168.061 10 0 59568 30600.00000 0 -22979435.534 6959088.792 8629571.601 10 0 59568 31500.00000 0 -21781281.549 6557606.706 11556446.507 10 0 59568 32400.00000 0 -20324244.534 5882367.379 14258995.109 10 0 59568 33300.00000 0 -18667706.696 4913474.320 16684783.487 10 0 59568 34200.00000 0 -16875849.067 3643591.761 18786755.315 10 0 59568 35100.00000 0 -15014990.958 2078510.512 20524140.554 10 0 59568 36000.00000 0 -13150860.218 237161.813 21863241.877 10 0 59568 36900.00000 0 -11345908.168 -1848922.346 22778084.163 10 0 59568 37800.00000 0 -9656780.862 -4136681.007 23250915.100 10 0 59568 38700.00000 0 -8132051.577 -6573084.685 23272547.684 10 0 59568 39600.00000 0 -6810308.459 -9097120.644 22842538.343 10 0 59568 40500.00000 0 -5718676.317 -11642121.683 21969197.326 10 0 59568 41400.00000 0 -4871833.510 -14138342.806 20669431.036 10 0 59568 42300.00000 0 -4271564.318 -16515679.606 18968418.991 10 0 59568 43200.00000 0 -3906864.918 -18706416.219 16899131.105 10 0 59568 44100.00000 0 -3754597.973 -20647889.132 14501693.925 10 0 59568 45000.00000 0 -3780668.023 -22284956.222 11822617.414 10 0 59568 45900.00000 0 -3941667.874 -23572168.259 8913896.609 10 0 59568 46800.00000 0 -4186926.347 -24475552.148 5832005.025 10 0 59568 47700.00000 0 -4460870.666 -24973931.135 2636799.093 10 0 59568 48600.00000 0 -4705603.286 -25059726.481 -609645.154 10 0 59568 49500.00000 0 -4863583.632 -24739206.734 -3844240.425 10 0 59568 50400.00000 0 -4880300.631 -24032173.962 -7004117.562 10 0 59568 51300.00000 0 -4706822.085 -22971100.058 -10027851.592 10 0 59568 52200.00000 0 -4302112.046 -21599749.456 -12856660.034 10 0 59568 53100.00000 0 -3635017.141 -19971346.304 -15435549.487 10 0 59568 54000.00000 0 -2685836.768 -18146363.328 -17714387.825 10 0 59568 54900.00000 0 -1447409.749 -16190025.509 -19648880.827 10 0 59568 55800.00000 0 74329.520 -14169633.553 -21201434.107 10 0 59568 56700.00000 0 1860349.978 -12151819.523 -22341883.676 10 0 59568 57600.00000 0 3879079.048 -10199849.553 -23048081.166 10 0 59568 58500.00000 0 6087491.763 -8371086.394 -23306322.624 10 0 59568 59400.00000 0 8432689.294 -6714717.521 -23111612.869 10 0 59568 60300.00000 0 10853901.820 -5269843.166 -22467760.608 10 0 59568 61200.00000 0 13284832.812 -4064003.467 -21387302.624 10 0 59568 62100.00000 0 15656247.634 -3112205.370 -19891258.632 10 0 59568 63000.00000 0 17898699.029 -2416488.863 -18008721.535 10 0 59568 63900.00000 0 19945276.168 -1966049.643 -15776290.949 10 0 59568 64800.00000 0 21734262.931 -1737911.784 -13237360.880 10 0 59568 65700.00000 0 23211594.671 -1698120.988 -10441275.211 10 0 59568 66600.00000 0 24333011.005 -1803407.078 -7442367.428 10 0 59568 67500.00000 0 25065814.824 -2003244.601 -4298903.221 10 0 59568 68400.00000 0 25390164.182 -2242223.663 -1071946.660 10 0 59568 69300.00000 0 25299843.222 -2462630.005 2175827.740 10 0 59568 70200.00000 0 24802480.233 -2607124.570 5381353.663 10 0 59568 71100.00000 0 23919204.148 -2621408.590 8482398.412 10 0 59568 72000.00000 0 22683754.349 -2456761.038 11418770.904 10 0 59568 72900.00000 0 21141081.583 -2072340.703 14133488.697 10 0 59568 73800.00000 0 19345498.993 -1437155.210 16573881.386 10 0 59568 74700.00000 0 17358460.993 -531613.477 18692609.082 10 0 59568 75600.00000 0 15246063.015 651404.343 20448576.628 10 0 59568 76500.00000 0 13076366.508 2106005.139 21807726.342 10 0 59568 77400.00000 0 10916660.602 3813292.853 22743694.474 10 0 59568 78300.00000 0 8830774.159 5741930.845 23238319.289 10 0 59568 79200.00000 0 6876549.515 7849234.240 23281991.438 10 0 59568 80100.00000 0 5103582.441 10082747.826 22873840.174 10 0 59568 81000.00000 0 3551321.548 12382245.028 22021751.960 10 0 59568 81900.00000 0 2247605.418 14682065.886 20742220.944 10 0 59568 82800.00000 0 1207697.663 16913697.748 19060033.887 10 0 59568 83700.00000 0 433859.340 19008492.119 17007795.050 10 0 59568 84600.00000 0 -84524.123 20900405.193 14625299.536 10 0 59568 85500.00000 0 -370267.404 22528648.109 11958766.559 10 0 59569 0.00000 0 -457190.130 23840136.400 9059947.065 10 0 59569 900.00000 0 -388452.860 24791636.792 5985120.886 10 0 59569 1800.00000 0 -214494.729 25351519.487 2794006.580 10 0 59569 2700.00000 0 9339.489 25501044.473 -451400.164 10 0 59569 3600.00000 0 225382.213 25235125.584 -3688032.974 10 0 59569 4500.00000 0 376325.767 24562540.529 -6852983.724 10 0 59569 5400.00000 0 407890.658 23505577.598 -9884729.292 10 0 59569 6300.00000 0 271365.634 22099133.578 -12724331.742 10 0 59569 7200.00000 0 -74088.919 20389300.667 -15316587.944 10 0 59569 8100.00000 0 -659472.625 18431501.700 -17611105.863 10 0 59569 9000.00000 0 -1504396.007 16288251.914 -19563286.290 10 0 59569 9900.00000 0 -2616016.997 14026641.235 -21135190.750 10 0 59569 10800.00000 0 -3988508.898 11715642.496 -22296278.807 10 0 59569 11700.00000 0 -5603083.228 9423358.165 -23024000.662 10 0 59569 12600.00000 0 -7428567.408 7214320.464 -23304233.760 10 0 59569 13500.00000 0 -9422514.029 5146957.281 -23131555.316 10 0 59569 14400.00000 0 -11532796.120 3271329.026 -22509345.725 10 0 59569 15300.00000 0 -13699622.407 1627230.199 -21449721.077 10 0 59569 16200.00000 0 -15857889.003 242733.925 -19973296.184 10 0 59569 17100.00000 0 -17939769.832 -866760.889 -18108782.718 10 0 59569 18000.00000 0 -19877437.896 -1698941.105 -15892430.154 10 0 59569 18900.00000 0 -21605803.977 -2264433.753 -13367320.275 10 0 59569 19800.00000 0 -23065158.457 -2586110.753 -10582528.755 10 0 59569 20700.00000 0 -24203605.741 -2697874.433 -7592170.095 10 0 59569 21600.00000 0 -24979189.452 -2642976.305 -4454344.487 10 0 59569 22500.00000 0 -25361619.391 -2471941.075 -1230007.156 10 0 59569 23400.00000 0 -25333527.872 -2240184.560 2018217.497 10 0 59569 24300.00000 0 -24891202.889 -2005427.031 5227253.647 10 0 59569 25200.00000 0 -24044767.511 -1825012.069 8334799.716 10 0 59569 26100.00000 0 -22817798.182 -1753244.897 11280537.785 10 0 59569 27000.00000 0 -21246398.170 -1838863.162 14007303.131 10 0 59569 27900.00000 0 -19377765.133 -2122747.450 16462191.216 10 0 59569 28800.00000 0 -17268312.933 -2635968.487 18597580.718 10 0 59569 29700.00000 0 -14981426.183 -3398253.749 20372053.202 10 0 59569 30600.00000 0 -12584941.087 -4416938.497 21751192.109 10 0 59569 31500.00000 0 -10148457.363 -5686445.898 22708246.122 10 0 59569 32400.00000 0 -7740592.660 -7188318.806 23224644.709 10 0 59569 33300.00000 0 -5426293.018 -8891802.830 23290356.372 10 0 59569 34200.00000 0 -3264310.511 -10754957.312 22904082.989 10 0 59569 35100.00000 0 -1304951.999 -12726248.992 22073286.653 10 0 59569 36000.00000 0 411808.299 -14746563.027 20814048.358 10 0 59569 36900.00000 0 1857774.758 -16751548.511 19150760.902 10 0 59569 37800.00000 0 3017475.474 -18674201.613 17115661.422 10 0 59569 38700.00000 0 3888568.006 -20447579.293 14748211.866 10 0 59569 39600.00000 0 4481689.464 -22007530.668 12094338.759 10 0 59569 40500.00000 0 4819757.968 -23295332.059 9205546.292 10 0 59569 41400.00000 0 4936755.472 -24260115.365 6137919.387 10 0 59569 42300.00000 0 4876043.751 -24860987.640 2951035.838 10 0 59569 43200.00000 0 4688285.175 -25068752.480 -293191.453 10 0 59569 44100.00000 0 4429056.717 -24867160.280 -3531719.519 10 0 59569 45000.00000 0 4156258.724 -24253634.173 -6701603.762 10 0 59569 45900.00000 0 3927428.815 -23239440.476 -9741225.408 10 0 59569 46800.00000 0 3797075.415 -21849295.891 -12591493.555 10 0 59569 47700.00000 0 3814144.573 -20120427.545 -15196997.781 10 0 59569 48600.00000 0 4019728.105 -18101124.968 -17507088.485 10 0 59569 49500.00000 0 4445110.791 -15848844.525 -19476863.640 10 0 59569 50400.00000 0 5110239.953 -13427945.597 -21068042.615 10 0 59569 51300.00000 0 6022682.767 -10907153.117 -22249710.151 10 0 59569 52200.00000 0 7177116.096 -8356852.301 -22998916.254 10 0 59569 53100.00000 0 8555371.030 -5846328.372 -23301120.610 10 0 59569 54000.00000 0 10127031.081 -3441065.982 -23150473.248 10 0 59569 54900.00000 0 11850559.664 -1200220.344 -22549926.285 10 0 59569 55800.00000 0 13674910.240 825635.137 -21511174.777 10 0 59569 56700.00000 0 15541552.319 2596391.828 -20054427.952 10 0 59569 57600.00000 0 17386828.976 4083841.940 -18208015.217 10 0 59569 58500.00000 0 19144547.551 5272608.902 -16007834.548 10 0 59569 59400.00000 0 20748695.298 6160534.533 -13496653.795 10 0 59569 60300.00000 0 22136166.390 6758508.183 -10723278.348 10 0 59569 61200.00000 0 23249385.949 7089746.398 -7741601.315 10 0 59569 62100.00000 0 24038721.043 7188554.829 -4609554.655 10 0 59569 63000.00000 0 24464577.370 7098625.804 -1387981.783 10 0 59569 63900.00000 0 24499093.470 6870944.528 1860546.144 10 0 59569 64800.00000 0 24127361.254 6561393.357 5072946.962 10 0 59569 65700.00000 0 23348121.492 6228156.237 8186853.331 10 0 59569 66600.00000 0 22173905.043 5929033.655 11141823.466 10 0 59569 67500.00000 0 20630613.843 5718782.132 13880513.138 10 0 59569 68400.00000 0 18756559.161 5646591.024 16349786.181 10 0 59569 69300.00000 0 16600997.305 5753803.396 18501742.069 10 0 59569 70200.00000 0 14222223.784 6071977.331 20294641.020 10 0 59569 71100.00000 0 11685305.161 6621369.557 21693709.211 10 0 59569 72000.00000 0 9059542.720 7409905.481 22671809.042 10 0 59569 72900.00000 0 6415772.950 8432679.360 23209962.110 10 0 59569 73800.00000 0 3823616.277 9672006.181 23297715.283 10 0 59569 74700.00000 0 1348787.644 11098023.840 22933343.129 10 0 59569 75600.00000 0 -949420.367 12669821.371 22123882.972 10 0 59569 76500.00000 0 -3020378.279 14337047.037 20885001.753 10 0 59569 77400.00000 0 -4823992.095 16041930.055 19240696.935 10 0 59569 78300.00000 0 -6332130.375 17721632.409 17222836.723 10 0 59569 79200.00000 0 -7529547.435 19310833.169 14870547.737 10 0 59569 80100.00000 0 -8414264.871 20744437.718 12229461.352 10 0 59569 81000.00000 0 -8997396.261 21960298.696 9350832.604 10 0 59569 81900.00000 0 -9302423.068 22901834.603 6290548.175 10 0 59569 82800.00000 0 -9363952.820 23520435.811 3108042.461 10 0 59569 83700.00000 0 -9226012.512 23777556.431 -134857.348 10 0 59569 84600.00000 0 -8939949.905 23646403.343 -3375134.605 10 0 59569 85500.00000 0 -8562031.977 23113150.533 -6549811.087 10 0 59570 0.00000 0 -8150842.894 22177626.890 -9597174.835 10 0 59570 900.00000 0 -7764592.031 20853447.119 -12457985.087 10 0 59570 1800.00000 0 -7458447.283 19167580.898 -15076626.172 10 0 59570 2700.00000 0 -7282006.428 17159376.022 -17402192.986 10 0 59570 3600.00000 0 -7277014.737 14879077.171 -19389482.468 10 0 59570 4500.00000 0 -7475425.660 12385901.526 -20999873.321 10 0 59570 5400.00000 0 -7897887.120 9745751.447 -22202076.650 10 0 59570 6300.00000 0 -8552717.756 7028659.419 -22972743.157 10 0 59570 7200.00000 0 -9435416.801 4306071.590 -23296915.335 10 0 59570 8100.00000 0 -10528728.680 1648082.691 -23168316.243 10 0 59570 9000.00000 0 -11803260.174 -879263.054 -22589469.537 10 0 59570 9900.00000 0 -13218624.622 -3216493.222 -21571648.632 10 0 59570 10800.00000 0 -14725065.642 -5312946.567 -20134656.120 10 0 59570 11700.00000 0 -16265492.618 -7128638.171 -18306437.679 10 0 59570 12600.00000 0 -17777842.833 -8635673.641 -16122537.916 10 0 59570 13500.00000 0 -19197671.369 -9819154.587 -13625408.566 10 0 59570 14400.00000 0 -20460860.161 -10677538.883 -10863582.318 10 0 59570 15300.00000 0 -21506332.402 -11222441.959 -7890728.295 10 0 59570 16200.00000 0 -22278658.173 -11477888.912 -4764607.549 10 0 59570 17100.00000 0 -22730441.562 -11479050.276 -1545948.948 10 0 59570 18000.00000 0 -22824388.686 -11270515.942 1702732.348 10 0 59570 18900.00000 0 -22534969.372 -10904181.196 4918350.599 10 0 59570 19800.00000 0 -21849602.389 -10436835.101 8038475.460 10 0 59570 20700.00000 0 -20769314.161 -9927553.824 11002543.990 10 0 59570 21600.00000 0 -19308843.055 -9435009.646 13753035.068 10 0 59570 22500.00000 0 -17496184.572 -9014809.652 16236583.358 10 0 59570 23400.00000 0 -15371596.219 -8716976.647 18405011.348 10 0 59570 24300.00000 0 -12986103.271 -8583678.624 20216259.815 10 0 59570 25200.00000 0 -10399567.306 -8647302.475 21635199.193 10 0 59570 26100.00000 0 -7678397.475 -8928953.015 22634306.693 10 0 59570 27000.00000 0 -4892999.032 -9437440.526 23194196.676 10 0 59570 27900.00000 0 -2115064.306 -10168799.595 23303994.566 10 0 59570 28800.00000 0 585182.214 -11106359.794 22961547.396 10 0 59570 29700.00000 0 3141671.334 -12221365.860 22173467.107 10 0 59570 30600.00000 0 5494998.648 -13474122.124 20955005.626 10 0 59570 31500.00000 0 7594652.709 -14815614.048 19329763.821 10 0 59570 32400.00000 0 9400870.281 -16189539.801 17329239.416 10 0 59570 33300.00000 0 10886042.290 -17534667.490 14992221.879 10 0 59570 34200.00000 0 12035612.573 -18787419.783 12364045.354 10 0 59570 35100.00000 0 12848432.664 -19884577.835 9495713.389 10 0 59570 36000.00000 0 13336558.386 -20765991.026 6442911.874 10 0 59570 36900.00000 0 13524497.431 -21377178.377 3264929.087 10 0 59570 37800.00000 0 13447940.179 -21671711.722 23503.689 10 0 59570 38700.00000 0 13152027.898 -21613279.586 -3218376.828 10 0 59570 39600.00000 0 12689231.984 -21177343.949 -6397703.427 10 0 59570 40500.00000 0 12116934.542 -20352319.159 -9452674.198 10 0 59570 41400.00000 0 11494813.237 -19140222.287 -12323899.995 10 0 59570 42300.00000 0 10882141.658 -17556766.614 -14955562.869 10 0 59570 43200.00000 0 10335120.006 -15630893.406 -17296504.413 10 0 59570 44100.00000 0 9904349.486 -13403760.782 -19301222.495 10 0 59570 45000.00000 0 9632557.575 -10927231.411 -20930756.812 10 0 59570 45900.00000 0 9552670.606 -8261921.714 -22153446.158 10 0 59570 46800.00000 0 9686315.260 -5474893.498 -22945542.866 10 0 59570 47700.00000 0 10042812.342 -2637083.913 -23291672.762 10 0 59570 48600.00000 0 10618705.424 179419.716 -23185132.045 10 0 59570 49500.00000 0 11397844.372 2904147.315 -22628015.630 10 0 59570 50400.00000 0 12352020.392 5470941.120 -21631174.649 10 0 59570 51300.00000 0 13442126.108 7820467.000 -20214004.082 10 0 59570 52200.00000 0 14619792.065 9902438.393 -18404064.590 10 0 59570 53100.00000 0 15829431.013 11677461.053 -16236545.840 10 0 59570 54000.00000 0 17010604.115 13118422.852 -13753581.591 10 0 59570 54900.00000 0 18100609.606 14211371.744 -11003429.689 10 0 59570 55800.00000 0 19037184.881 14955846.401 -8039532.867 10 0 59570 56700.00000 0 19761208.165 15364647.033 -4919478.617 10 0 59570 57600.00000 0 20219285.731 15463057.353 -1703878.439 10 0 59570 58500.00000 0 20366115.424 15287551.692 1544811.440 10 0 59570 59400.00000 0 20166526.605 14884042.952 4763504.652 10 0 59570 60300.00000 0 19597110.217 14305746.320 7889710.719 10 0 59570 61200.00000 0 18647370.018 13610749.745 10862748.282 10 0 59570 62100.00000 0 17320346.152 12859394.374 13624921.859 10 0 59570 63000.00000 0 15632684.379 12111575.920 16122639.258 10 0 59570 63900.00000 0 13614147.646 11424080.998 18307448.045 10 0 59570 64800.00000 0 11306589.798 10848070.717 20136971.360 10 0 59570 65700.00000 0 8762433.670 10426817.407 21575725.438 10 0 59570 66600.00000 0 6042716.314 10193789.480 22595803.551 10 0 59570 67500.00000 0 3214781.860 10171164.732 23177413.755 10 0 59570 68400.00000 0 349716.968 10368834.410 23309260.585 10 0 59570 69300.00000 0 -2480365.567 10783939.812 22988763.675 10 0 59570 70200.00000 0 -5205083.394 11400961.041 22222109.247 10 0 59570 71100.00000 0 -7758468.075 12192354.537 21024133.391 10 0 59570 72000.00000 0 -10081464.937 13119713.135 19418039.053 10 0 59570 72900.00000 0 -12124146.461 14135400.576 17434951.678 10 0 59570 73800.00000 0 -13847547.958 15184592.490 15113321.393 10 0 59570 74700.00000 0 -15225049.734 16207638.650 12498182.598 10 0 59570 75600.00000 0 -16243248.725 17142647.564 9640284.633 10 0 59570 76500.00000 0 -16902283.704 17928184.857 6595109.759 10 0 59570 77400.00000 0 -17215600.936 18505971.653 3421797.256 10 0 59570 78300.00000 0 -17209170.662 18823468.871 181994.376 10 0 59570 79200.00000 0 -16920187.903 18836237.821 -3061343.378 10 0 59570 80100.00000 0 -16395312.910 18509976.654 -6245178.911 10 0 59570 81000.00000 0 -15688526.079 17822145.756 -9307622.767 10 0 59570 81900.00000 0 -14858688.565 16763112.444 -12189140.473 10 0 59570 82800.00000 0 -13966912.217 15336765.627 -14833713.858 10 0 59570 83700.00000 0 -13073850.546 13560573.446 -17189933.303 10 0 59570 84600.00000 0 -12237025.601 11465080.419 -19211999.411 10 0 59570 85500.00000 0 -11508303.990 9092864.270 -20860614.380 10 0 59571 0.00000 0 -10931628.822 6496995.518 -22103745.770 10 0 59571 900.00000 0 -10541102.998 3739061.988 -22917248.606 10 0 59571 1800.00000 0 -10359505.355 886843.618 -23285332.398 10 0 59571 2700.00000 0 -10397300.991 -1988270.840 -23200866.607 10 0 59571 3600.00000 0 -10652188.103 -4814014.858 -22665517.140 10 0 59571 4500.00000 0 -11109199.861 -7520011.205 -21689712.180 10 0 59571 5400.00000 0 -11741356.956 -10040460.411 -20292438.030 10 0 59571 6300.00000 0 -12510843.193 -12316639.521 -18500868.885 10 0 59571 7200.00000 0 -13370654.549 -14299107.845 -16349837.675 10 0 59571 8100.00000 0 -14266652.146 -15949528.669 -13881158.099 10 0 59571 9000.00000 0 -15139932.514 -17242031.960 -11142810.858 10 0 59571 9900.00000 0 -15929415.116 -18164062.060 -8188009.852 10 0 59571 10800.00000 0 -16574537.795 -18716676.119 -5074166.495 10 0 59571 11700.00000 0 -17017946.174 -18914281.934 -1861772.354 10 0 59571 12600.00000 0 -17208063.219 -18783827.370 1386777.847 10 0 59571 13500.00000 0 -17101430.173 -18363476.689 4608399.708 10 0 59571 14400.00000 0 -16664719.700 -17700830.570 7740545.206 10 0 59571 15300.00000 0 -15876335.942 -16850765.750 10722417.140 10 0 59571 16200.00000 0 -14727533.610 -15872986.102 13496148.194 10 0 59571 17100.00000 0 -13223008.483 -14829388.852 16007921.731 10 0 59571 18000.00000 0 -11380933.943 -13781357.174 18209012.636 10 0 59571 18900.00000 0 -9232441.311 -12787093.195 20056728.402 10 0 59571 19800.00000 0 -6820564.885 -11899103.416 21515232.743 10 0 59571 20700.00000 0 -4198694.903 -11161941.921 22556236.288 10 0 59571 21600.00000 0 -1428601.870 -10610305.750 23159541.691 10 0 59571 22500.00000 0 1421886.681 -10267561.915 23313433.091 10 0 59571 23400.00000 0 4281461.466 -10144767.491 23014902.804 10 0 59571 24300.00000 0 7078053.074 -10240223.633 22269711.040 10 0 59571 25200.00000 0 9741588.075 -10539582.130 21092277.391 10 0 59571 26100.00000 0 12206666.195 -11016500.113 19505405.882 10 0 59571 27000.00000 0 14415048.296 -11633815.699 17539848.361 10 0 59571 27900.00000 0 16317852.544 -12345195.492 15233713.961 10 0 59571 28800.00000 0 17877367.871 -13097185.052 12631735.365 10 0 59571 29700.00000 0 19068409.658 -13831576.329 9784405.393 10 0 59571 30600.00000 0 19879161.421 -14487992.460 6747000.052 10 0 59571 31500.00000 0 20311467.578 -15006580.897 3578506.726 10 0 59571 32400.00000 0 20380565.398 -15330700.902 340478.175 10 0 59571 33300.00000 0 20114267.787 -15409491.373 -2904165.286 10 0 59571 34200.00000 0 19551631.702 -15200209.775 -6092361.688 10 0 59571 35100.00000 0 18741168.802 -14670242.402 -9162137.106 10 0 59571 36000.00000 0 17738674.299 -13798699.985 -12053814.638 10 0 59571 36900.00000 0 16604766.151 -12577530.153 -14711178.522 10 0 59571 37800.00000 0 15402238.940 -11012098.664 -17082570.284 10 0 59571 38700.00000 0 14193344.460 -9121213.712 -19121895.299 10 0 59571 39600.00000 0 13037114.032 -6936591.225 -20789519.962 10 0 59571 40500.00000 0 11986835.549 -4501782.489 -22053042.115 10 0 59571 41400.00000 0 11087791.453 -1870607.981 -22887919.959 10 0 59571 42300.00000 0 10375352.757 894837.948 -23277947.473 10 0 59571 43200.00000 0 9873508.901 3726529.129 -23215567.477 10 0 59571 44100.00000 0 9593894.883 6553099.562 -22702016.553 10 0 59571 45000.00000 0 9535356.063 9302578.023 -21747299.227 10 0 59571 45900.00000 0 9684068.440 11905152.187 -20369992.043 10 0 59571 46800.00000 0 10014208.811 14295847.936 -18596881.310 10 0 59571 47700.00000 0 10489146.149 16417012.864 -16462441.479 10 0 59571 48600.00000 0 11063103.596 18220501.270 -14008164.155 10 0 59571 49500.00000 0 11683220.604 19669470.242 -11281750.576 10 0 59571 50400.00000 0 12291927.895 20739712.586 -8336183.236 10 0 59571 51300.00000 0 12829534.614 21420471.763 -5228694.676 10 0 59571 52200.00000 0 13236918.046 21714705.706 -2019653.575 10 0 59571 53100.00000 0 13458201.890 21638789.396 1228609.894 10 0 59571 54000.00000 0 13443309.513 21221669.812 4453016.323 10 0 59571 54900.00000 0 13150283.905 20503509.747 7590963.092 10 0 59571 55800.00000 0 12547275.933 19533878.499 10581539.927 10 0 59571 56700.00000 0 11614116.531 18369566.334 13366710.227 10 0 59571 57600.00000 0 10343406.019 17072115.263 15892435.209 10 0 59571 58500.00000 0 8741074.112 15705170.376 18109719.101 10 0 59571 59400.00000 0 6826386.365 14331763.133 19975555.505 10 0 59571 60300.00000 0 4631395.902 13011640.594 21453757.074 10 0 59571 61200.00000 0 2199862.416 11798752.331 22515652.979 10 0 59571 62100.00000 0 -414317.543 10738999.877 23140641.314 10 0 59571 63000.00000 0 -3149104.836 9868342.395 23316586.307 10 0 59571 63900.00000 0 -5936654.721 9211337.326 23040053.029 10 0 59571 64800.00000 0 -8705900.762 8780176.529 22316375.284 10 0 59571 65700.00000 0 -11385279.528 8574257.815 21159555.282 10 0 59571 66600.00000 0 -13905483.965 8580309.541 19591996.740 10 0 59571 67500.00000 0 -16202132.021 8773062.853 17644076.035 10 0 59571 68400.00000 0 -18218240.356 9116443.350 15353558.993 10 0 59571 69300.00000 0 -19906400.658 9565232.123 12764873.918 10 0 59571 70200.00000 0 -21230568.267 10067126.362 9928254.211 10 0 59571 71100.00000 0 -22167388.690 10565112.706 6898766.588 10 0 59571 72000.00000 0 -22707006.622 11000053.117 3735243.465 10 0 59571 72900.00000 0 -22853323.719 11313373.787 499140.070 10 0 59571 73800.00000 0 -22623694.475 11449742.947 -2746661.415 10 0 59571 74700.00000 0 -22048073.154 11359623.657 -5939076.986 10 0 59571 75600.00000 0 -21167647.999 11001592.731 -9016050.948 10 0 59571 76500.00000 0 -20033020.570 10344326.720 -11917766.511 10 0 59571 77400.00000 0 -18702007.371 9368169.908 -14587812.672 10 0 59571 78300.00000 0 -17237156.808 8066216.945 -16974284.200 10 0 59571 79200.00000 0 -15703086.425 6444863.220 -19030793.038 10 0 59571 80100.00000 0 -14163752.865 4523798.670 -20717371.211 10 0 59571 81000.00000 0 -12679769.535 2335444.069 -22001247.789 10 0 59571 81900.00000 0 -11305884.689 -76147.680 -22857484.993 10 0 59571 82800.00000 0 -10088725.714 -2656880.271 -23269461.330 10 0 59571 83700.00000 0 -9064903.909 -5344627.313 -23229192.751 10 0 59571 84600.00000 0 -8259558.708 -8071587.160 -22737485.877 10 0 59571 85500.00000 0 -7685401.816 -10766881.774 -21803920.545 99